Tracking 28126 objects as of 1-Oct-2023
HD Live streaming from Space Station
objects crossing your sky now

LEMUR 2 JOHN-TREIRES

Track LEMUR 2 JOHN-TREIRES now!
10-day predictions
LEMUR 2 JOHN-TREIRES is classified as:


NORAD ID: 48925
Int'l Code: 2021-059AY
Perigee: 386.3 km
Apogee: 395.9 km
Inclination: 97.6 °
Period: 92.2 minutes
Semi major axis: 6762 km
RCS: Unknown
Launch date: June 30, 2021
Source: United States (US)
Launch site: AIR FORCE EASTERN TEST RANGE (AFETR)
Your satellite tracking list
Your tracking list is empty




NASA's NSSDC Master Catalog

Two Line Element Set (TLE):
1 48925U 21059AY  23274.40631733  .00175785  00000-0  20318-2 0  9999
2 48925  97.6082  61.2674 0007067 232.0497 128.0122 15.61271102126129
Source of the keplerian elements: AFSPC